owner,sensor,date,latitude,longitude,air_temperature,qcFlag 
NDBC,ioos:station:NOAA.NDBC:PLSF1:1,2019-10-01T00:45:00Z,24.6930,-82.7730,28.6,11111222 
NDBC,ioos:station:NOAA.NDBC:PLSF1:1,2019-10-01T01:45:00Z,24.6930,-82.7730,28.5,11111222 
NDBC,ioos:station:NOAA.NDBC:PLSF1:1,2019-10-01T03:45:00Z,24.6930,-82.7730,28.5,11111222 
NDBC,ioos:station:NOAA.NDBC:PLSF1:1,2019-10-01T04:45:00Z,24.6930,-82.7730,28.2,11111222 
NDBC,ioos:station:NOAA.NDBC:PLSF1:1,2019-10-01T05:45:00Z,24.6930,-82.7730,27.8,11111222 
NDBC,ioos:station:NOAA.NDBC:PLSF1:1,2019-10-01T06:45:00Z,24.6930,-82.7730,27.9,11111222 
NDBC,ioos:station:NOAA.NDBC:PLSF1:1,2019-10-01T07:45:00Z,24.6930,-82.7730,27.6,11111222 
NDBC,ioos:station:NOAA.NDBC:PLSF1:1,2019-10-01T08:45:00Z,24.6930,-82.7730,27.4,11111222 
NDBC,ioos:station:NOAA.NDBC:PLSF1:1,2019-10-01T09:45:00Z,24.6930,-82.7730,27.3,11111222 
NDBC,ioos:station:NOAA.NDBC:PLSF1:1,2019-10-01T10:45:00Z,24.6930,-82.7730,27.2,11111222 
NDBC,ioos:station:NOAA.NDBC:PLSF1:1,2019-10-01T11:45:00Z,24.6930,-82.7730,27.2,11111222 
NDBC,ioos:station:NOAA.NDBC:PLSF1:1,2019-10-01T12:45:00Z,24.6930,-82.7730,27.4,11111222 
NDBC,ioos:station:NOAA.NDBC:PLSF1:1,2019-10-01T13:45:00Z,24.6930,-82.7730,27.7,11111222 
NDBC,ioos:station:NOAA.NDBC:PLSF1:1,2019-10-01T15:45:00Z,24.6930,-82.7730,27.6,11111222 
NDBC,ioos:station:NOAA.NDBC:PLSF1:1,2019-10-01T16:45:00Z,24.6930,-82.7730,27.8,11111222 
NDBC,ioos:station:NOAA.NDBC:PLSF1:1,2019-10-01T17:45:00Z,24.6930,-82.7730,28.0,11111222 
NDBC,ioos:station:NOAA.NDBC:PLSF1:1,2019-10-01T18:45:00Z,24.6930,-82.7730,28.1,11111222 
NDBC,ioos:station:NOAA.NDBC:PLSF1:1,2019-10-01T19:45:00Z,24.6930,-82.7730,28.4,11111222 
NDBC,ioos:station:NOAA.NDBC:PLSF1:1,2019-10-01T20:45:00Z,24.6930,-82.7730,28.2,11111222 
NDBC,ioos:station:NOAA.NDBC:PLSF1:1,2019-10-01T21:45:00Z,24.6930,-82.7730,28.0,11111222 
NDBC,ioos:station:NOAA.NDBC:PLSF1:1,2019-10-01T22:45:00Z,24.6930,-82.7730,27.8,11111222 
NDBC,ioos:station:NOAA.NDBC:PLSF1:1,2019-10-01T23:45:00Z,24.6930,-82.7730,28.7,11111222 
NDBC,ioos:station:NOAA.NDBC:PLSF1:1,2019-10-02T00:45:00Z,24.6930,-82.7730,28.9,11111222 
NDBC,ioos:station:NOAA.NDBC:PLSF1:1,2019-10-02T01:45:00Z,24.6930,-82.7730,29.0,11111222 
NDBC,ioos:station:NOAA.NDBC:PLSF1:1,2019-10-02T03:45:00Z,24.6930,-82.7730,28.3,11111222 
NDBC,ioos:station:NOAA.NDBC:PLSF1:1,2019-10-02T04:45:00Z,24.6930,-82.7730,28.0,11111222 
NDBC,ioos:station:NOAA.NDBC:PLSF1:1,2019-10-02T05:45:00Z,24.6930,-82.7730,27.8,11111222 
NDBC,ioos:station:NOAA.NDBC:PLSF1:1,2019-10-02T06:45:00Z,24.6930,-82.7730,27.6,11111222 
NDBC,ioos:station:NOAA.NDBC:PLSF1:1,2019-10-02T07:45:00Z,24.6930,-82.7730,27.5,11111222 
NDBC,ioos:station:NOAA.NDBC:PLSF1:1,2019-10-02T08:45:00Z,24.6930,-82.7730,27.4,11111222 
NDBC,ioos:station:NOAA.NDBC:PLSF1:1,2019-10-02T09:45:00Z,24.6930,-82.7730,27.4,11111222 
NDBC,ioos:station:NOAA.NDBC:PLSF1:1,2019-10-02T10:45:00Z,24.6930,-82.7730,27.4,11111222 
NDBC,ioos:station:NOAA.NDBC:PLSF1:1,2019-10-02T11:45:00Z,24.6930,-82.7730,27.6,11111222 
NDBC,ioos:station:NOAA.NDBC:PLSF1:1,2019-10-02T12:45:00Z,24.6930,-82.7730,27.8,11111222 
NDBC,ioos:station:NOAA.NDBC:PLSF1:1,2019-10-02T13:45:00Z,24.6930,-82.7730,27.8,11111222 
NDBC,ioos:station:NOAA.NDBC:PLSF1:1,2019-10-02T14:45:00Z,24.6930,-82.7730,27.6,11111222 
NDBC,ioos:station:NOAA.NDBC:PLSF1:1,2019-10-02T15:45:00Z,24.6930,-82.7730,27.7,11111222 
NDBC,ioos:station:NOAA.NDBC:PLSF1:1,2019-10-02T16:45:00Z,24.6930,-82.7730,27.8,11111222 
NDBC,ioos:station:NOAA.NDBC:PLSF1:1,2019-10-02T18:45:00Z,24.6930,-82.7730,28.1,11111222 
NDBC,ioos:station:NOAA.NDBC:PLSF1:1,2019-10-02T19:45:00Z,24.6930,-82.7730,28.5,11111222 
NDBC,ioos:station:NOAA.NDBC:PLSF1:1,2019-10-02T20:45:00Z,24.6930,-82.7730,28.5,11111222 
NDBC,ioos:station:NOAA.NDBC:PLSF1:1,2019-10-02T21:45:00Z,24.6930,-82.7730,28.5,11111222 
NDBC,ioos:station:NOAA.NDBC:PLSF1:1,2019-10-02T22:45:00Z,24.6930,-82.7730,28.3,11111222 
NDBC,ioos:station:NOAA.NDBC:PLSF1:1,2019-10-02T23:45:00Z,24.6930,-82.7730,28.2,11111222 
NDBC,ioos:station:NOAA.NDBC:PLSF1:1,2019-10-03T00:45:00Z,24.6930,-82.7730,28.2,11111222 
NDBC,ioos:station:NOAA.NDBC:PLSF1:1,2019-10-03T01:45:00Z,24.6930,-82.7730,28.4,11111222 
NDBC,ioos:station:NOAA.NDBC:PLSF1:1,2019-10-03T02:45:00Z,24.6930,-82.7730,28.4,11111222 
NDBC,ioos:station:NOAA.NDBC:PLSF1:1,2019-10-03T03:45:00Z,24.6930,-82.7730,28.1,11111222 
NDBC,ioos:station:NOAA.NDBC:PLSF1:1,2019-10-03T04:45:00Z,24.6930,-82.7730,27.9,11111222 
NDBC,ioos:station:NOAA.NDBC:PLSF1:1,2019-10-03T05:45:00Z,24.6930,-82.7730,28.0,11111222 
NDBC,ioos:station:NOAA.NDBC:PLSF1:1,2019-10-03T06:45:00Z,24.6930,-82.7730,27.7,11111222 
NDBC,ioos:station:NOAA.NDBC:PLSF1:1,2019-10-03T07:45:00Z,24.6930,-82.7730,27.4,11111222 
NDBC,ioos:station:NOAA.NDBC:PLSF1:1,2019-10-03T08:45:00Z,24.6930,-82.7730,27.8,11111222 
NDBC,ioos:station:NOAA.NDBC:PLSF1:1,2019-10-03T09:45:00Z,24.6930,-82.7730,27.8,11111222 
NDBC,ioos:station:NOAA.NDBC:PLSF1:1,2019-10-03T10:45:00Z,24.6930,-82.7730,28.0,11111222 
NDBC,ioos:station:NOAA.NDBC:PLSF1:1,2019-10-03T11:45:00Z,24.6930,-82.7730,27.7,11111222 
NDBC,ioos:station:NOAA.NDBC:PLSF1:1,2019-10-03T12:45:00Z,24.6930,-82.7730,28.0,11111222 
NDBC,ioos:station:NOAA.NDBC:PLSF1:1,2019-10-03T13:45:00Z,24.6930,-82.7730,27.9,11111222 
NDBC,ioos:station:NOAA.NDBC:PLSF1:1,2019-10-03T14:45:00Z,24.6930,-82.7730,27.4,11111222 
NDBC,ioos:station:NOAA.NDBC:PLSF1:1,2019-10-03T15:45:00Z,24.6930,-82.7730,28.0,11111222 
NDBC,ioos:station:NOAA.NDBC:PLSF1:1,2019-10-03T17:45:00Z,24.6930,-82.7730,27.0,11111222 
NDBC,ioos:station:NOAA.NDBC:PLSF1:1,2019-10-03T18:45:00Z,24.6930,-82.7730,28.0,11111222 
NDBC,ioos:station:NOAA.NDBC:PLSF1:1,2019-10-03T19:45:00Z,24.6930,-82.7730,28.3,11111222 
NDBC,ioos:station:NOAA.NDBC:PLSF1:1,2019-10-03T20:45:00Z,24.6930,-82.7730,28.5,11111222 
NDBC,ioos:station:NOAA.NDBC:PLSF1:1,2019-10-03T21:45:00Z,24.6930,-82.7730,27.8,11111222 
NDBC,ioos:station:NOAA.NDBC:PLSF1:1,2019-10-03T22:45:00Z,24.6930,-82.7730,28.2,11111222 
NDBC,ioos:station:NOAA.NDBC:PLSF1:1,2019-10-03T23:45:00Z,24.6930,-82.7730,28.2,11111222 
NDBC,ioos:station:NOAA.NDBC:PLSF1:1,2019-10-04T00:45:00Z,24.6930,-82.7730,28.1,11111222 
NDBC,ioos:station:NOAA.NDBC:PLSF1:1,2019-10-04T01:45:00Z,24.6930,-82.7730,28.3,11111222 
NDBC,ioos:station:NOAA.NDBC:PLSF1:1,2019-10-04T02:45:00Z,24.6930,-82.7730,28.0,11111222 
NDBC,ioos:station:NOAA.NDBC:PLSF1:1,2019-10-04T03:45:00Z,24.6930,-82.7730,28.1,11111222 
NDBC,ioos:station:NOAA.NDBC:PLSF1:1,2019-10-04T04:45:00Z,24.6930,-82.7730,26.1,11111222 
NDBC,ioos:station:NOAA.NDBC:PLSF1:1,2019-10-04T05:45:00Z,24.6930,-82.7730,28.0,11111222 
NDBC,ioos:station:NOAA.NDBC:PLSF1:1,2019-10-04T06:45:00Z,24.6930,-82.7730,27.8,11111222 
NDBC,ioos:station:NOAA.NDBC:PLSF1:1,2019-10-04T07:45:00Z,24.6930,-82.7730,27.7,11111222 
NDBC,ioos:station:NOAA.NDBC:PLSF1:1,2019-10-04T08:45:00Z,24.6930,-82.7730,27.5,11111222 
NDBC,ioos:station:NOAA.NDBC:PLSF1:1,2019-10-04T09:45:00Z,24.6930,-82.7730,27.6,11111222 
NDBC,ioos:station:NOAA.NDBC:PLSF1:1,2019-10-04T10:45:00Z,24.6930,-82.7730,27.6,11111222 
NDBC,ioos:station:NOAA.NDBC:PLSF1:1,2019-10-04T11:45:00Z,24.6930,-82.7730,27.5,11111222 
NDBC,ioos:station:NOAA.NDBC:PLSF1:1,2019-10-04T12:45:00Z,24.6930,-82.7730,27.8,11111222 
NDBC,ioos:station:NOAA.NDBC:PLSF1:1,2019-10-04T13:45:00Z,24.6930,-82.7730,27.9,11111222 
NDBC,ioos:station:NOAA.NDBC:PLSF1:1,2019-10-04T14:45:00Z,24.6930,-82.7730,27.9,11111222 
NDBC,ioos:station:NOAA.NDBC:PLSF1:1,2019-10-04T15:45:00Z,24.6930,-82.7730,28.1,11111222 
NDBC,ioos:station:NOAA.NDBC:PLSF1:1,2019-10-04T17:45:00Z,24.6930,-82.7730,27.8,11111222 
NDBC,ioos:station:NOAA.NDBC:PLSF1:1,2019-10-04T18:45:00Z,24.6930,-82.7730,28.1,11111222 
NDBC,ioos:station:NOAA.NDBC:PLSF1:1,2019-10-04T19:45:00Z,24.6930,-82.7730,27.4,11111222 
NDBC,ioos:station:NOAA.NDBC:PLSF1:1,2019-10-04T20:45:00Z,24.6930,-82.7730,27.5,11111222 
NDBC,ioos:station:NOAA.NDBC:PLSF1:1,2019-10-04T21:45:00Z,24.6930,-82.7730,27.9,11111222 
NDBC,ioos:station:NOAA.NDBC:PLSF1:1,2019-10-04T23:45:00Z,24.6930,-82.7730,27.8,11111222 
NDBC,ioos:station:NOAA.NDBC:PLSF1:1,2019-10-05T00:45:00Z,24.6930,-82.7730,27.9,11111222 
NDBC,ioos:station:NOAA.NDBC:PLSF1:1,2019-10-05T01:45:00Z,24.6930,-82.7730,28.1,11111222 
NDBC,ioos:station:NOAA.NDBC:PLSF1:1,2019-10-05T03:45:00Z,24.6930,-82.7730,28.1,11111222 
NDBC,ioos:station:NOAA.NDBC:PLSF1:1,2019-10-05T04:45:00Z,24.6930,-82.7730,27.8,11111222 
NDBC,ioos:station:NOAA.NDBC:PLSF1:1,2019-10-05T06:45:00Z,24.6930,-82.7730,27.8,11111222 
NDBC,ioos:station:NOAA.NDBC:PLSF1:1,2019-10-05T07:45:00Z,24.6930,-82.7730,27.7,11111222 
NDBC,ioos:station:NOAA.NDBC:PLSF1:1,2019-10-05T08:45:00Z,24.6930,-82.7730,27.8,11111222 
NDBC,ioos:station:NOAA.NDBC:PLSF1:1,2019-10-05T09:45:00Z,24.6930,-82.7730,27.7,11111222 
NDBC,ioos:station:NOAA.NDBC:PLSF1:1,2019-10-05T10:45:00Z,24.6930,-82.7730,27.7,11111222 
NDBC,ioos:station:NOAA.NDBC:PLSF1:1,2019-10-05T12:45:00Z,24.6930,-82.7730,27.9,11111222 
NDBC,ioos:station:NOAA.NDBC:PLSF1:1,2019-10-05T13:45:00Z,24.6930,-82.7730,27.9,11111222 
NDBC,ioos:station:NOAA.NDBC:PLSF1:1,2019-10-05T14:45:00Z,24.6930,-82.7730,27.9,11111222 
NDBC,ioos:station:NOAA.NDBC:PLSF1:1,2019-10-05T16:45:00Z,24.6930,-82.7730,27.8,11111222 
NDBC,ioos:station:NOAA.NDBC:PLSF1:1,2019-10-05T17:45:00Z,24.6930,-82.7730,27.9,11111222 
NDBC,ioos:station:NOAA.NDBC:PLSF1:1,2019-10-05T19:45:00Z,24.6930,-82.7730,28.1,11111222 
NDBC,ioos:station:NOAA.NDBC:PLSF1:1,2019-10-05T20:45:00Z,24.6930,-82.7730,28.3,11111222 
NDBC,ioos:station:NOAA.NDBC:PLSF1:1,2019-10-05T21:45:00Z,24.6930,-82.7730,28.6,11111222 
NDBC,ioos:station:NOAA.NDBC:PLSF1:1,2019-10-05T22:45:00Z,24.6930,-82.7730,28.3,11111222 
NDBC,ioos:station:NOAA.NDBC:PLSF1:1,2019-10-06T00:45:00Z,24.6930,-82.7730,28.5,11111222 
NDBC,ioos:station:NOAA.NDBC:PLSF1:1,2019-10-06T01:45:00Z,24.6930,-82.7730,28.4,11111222 
NDBC,ioos:station:NOAA.NDBC:PLSF1:1,2019-10-06T02:45:00Z,24.6930,-82.7730,28.3,11111222 
NDBC,ioos:station:NOAA.NDBC:PLSF1:1,2019-10-06T04:45:00Z,24.6930,-82.7730,28.3,11111222 
NDBC,ioos:station:NOAA.NDBC:PLSF1:1,2019-10-06T06:45:00Z,24.6930,-82.7730,28.1,11111222 
NDBC,ioos:station:NOAA.NDBC:PLSF1:1,2019-10-06T07:45:00Z,24.6930,-82.7730,28.0,11111222 
NDBC,ioos:station:NOAA.NDBC:PLSF1:1,2019-10-06T08:45:00Z,24.6930,-82.7730,28.2,11111222 
NDBC,ioos:station:NOAA.NDBC:PLSF1:1,2019-10-06T09:45:00Z,24.6930,-82.7730,28.0,11111222 
NDBC,ioos:station:NOAA.NDBC:PLSF1:1,2019-10-06T10:45:00Z,24.6930,-82.7730,27.8,11111222 
NDBC,ioos:station:NOAA.NDBC:PLSF1:1,2019-10-06T11:45:00Z,24.6930,-82.7730,27.8,11111222 
NDBC,ioos:station:NOAA.NDBC:PLSF1:1,2019-10-06T12:45:00Z,24.6930,-82.7730,27.9,11111222 
NDBC,ioos:station:NOAA.NDBC:PLSF1:1,2019-10-06T13:45:00Z,24.6930,-82.7730,27.9,11111222 
NDBC,ioos:station:NOAA.NDBC:PLSF1:1,2019-10-06T14:45:00Z,24.6930,-82.7730,27.8,11111222 
NDBC,ioos:station:NOAA.NDBC:PLSF1:1,2019-10-06T15:45:00Z,24.6930,-82.7730,27.9,11111222 
NDBC,ioos:station:NOAA.NDBC:PLSF1:1,2019-10-06T16:45:00Z,24.6930,-82.7730,27.9,11111222 
NDBC,ioos:station:NOAA.NDBC:PLSF1:1,2019-10-06T17:45:00Z,24.6930,-82.7730,28.0,11111222 
NDBC,ioos:station:NOAA.NDBC:PLSF1:1,2019-10-06T18:45:00Z,24.6930,-82.7730,28.2,11111222 
NDBC,ioos:station:NOAA.NDBC:PLSF1:1,2019-10-06T19:45:00Z,24.6930,-82.7730,28.5,11111222 
NDBC,ioos:station:NOAA.NDBC:PLSF1:1,2019-10-06T20:45:00Z,24.6930,-82.7730,28.6,11111222 
NDBC,ioos:station:NOAA.NDBC:PLSF1:1,2019-10-06T21:45:00Z,24.6930,-82.7730,28.6,11111222 
NDBC,ioos:station:NOAA.NDBC:PLSF1:1,2019-10-06T22:45:00Z,24.6930,-82.7730,28.5,11111222 
NDBC,ioos:station:NOAA.NDBC:PLSF1:1,2019-10-06T23:45:00Z,24.6930,-82.7730,28.5,11111222 
NDBC,ioos:station:NOAA.NDBC:PLSF1:1,2019-10-07T00:45:00Z,24.6930,-82.7730,28.6,11111222 
NDBC,ioos:station:NOAA.NDBC:PLSF1:1,2019-10-07T01:45:00Z,24.6930,-82.7730,28.6,11111222 
NDBC,ioos:station:NOAA.NDBC:PLSF1:1,2019-10-07T02:45:00Z,24.6930,-82.7730,28.4,11111222 
NDBC,ioos:station:NOAA.NDBC:PLSF1:1,2019-10-07T03:45:00Z,24.6930,-82.7730,28.3,11111222 
NDBC,ioos:station:NOAA.NDBC:PLSF1:1,2019-10-07T04:45:00Z,24.6930,-82.7730,28.3,11111222 
NDBC,ioos:station:NOAA.NDBC:PLSF1:1,2019-10-07T05:45:00Z,24.6930,-82.7730,28.0,11111222 
NDBC,ioos:station:NOAA.NDBC:PLSF1:1,2019-10-07T07:45:00Z,24.6930,-82.7730,27.5,11111222 
NDBC,ioos:station:NOAA.NDBC:PLSF1:1,2019-10-07T08:45:00Z,24.6930,-82.7730,27.4,11111222 
NDBC,ioos:station:NOAA.NDBC:PLSF1:1,2019-10-07T09:45:00Z,24.6930,-82.7730,27.4,11111222 
NDBC,ioos:station:NOAA.NDBC:PLSF1:1,2019-10-07T10:45:00Z,24.6930,-82.7730,27.4,11111222 
NDBC,ioos:station:NOAA.NDBC:PLSF1:1,2019-10-07T11:45:00Z,24.6930,-82.7730,27.6,11111222 
NDBC,ioos:station:NOAA.NDBC:PLSF1:1,2019-10-07T12:45:00Z,24.6930,-82.7730,27.6,11111222 
NDBC,ioos:station:NOAA.NDBC:PLSF1:1,2019-10-07T14:45:00Z,24.6930,-82.7730,27.9,11111222 
NDBC,ioos:station:NOAA.NDBC:PLSF1:1,2019-10-07T15:45:00Z,24.6930,-82.7730,28.0,11111222 
NDBC,ioos:station:NOAA.NDBC:PLSF1:1,2019-10-07T16:45:00Z,24.6930,-82.7730,28.2,11111222 
NDBC,ioos:station:NOAA.NDBC:PLSF1:1,2019-10-07T17:45:00Z,24.6930,-82.7730,28.2,11111222 
NDBC,ioos:station:NOAA.NDBC:PLSF1:1,2019-10-07T18:45:00Z,24.6930,-82.7730,26.9,11111222 
NDBC,ioos:station:NOAA.NDBC:PLSF1:1,2019-10-07T19:45:00Z,24.6930,-82.7730,26.4,11111222 
NDBC,ioos:station:NOAA.NDBC:PLSF1:1,2019-10-07T20:45:00Z,24.6930,-82.7730,27.0,11111222 
NDBC,ioos:station:NOAA.NDBC:PLSF1:1,2019-10-07T21:45:00Z,24.6930,-82.7730,27.4,11111222 
NDBC,ioos:station:NOAA.NDBC:PLSF1:1,2019-10-07T22:45:00Z,24.6930,-82.7730,27.6,11111222 
NDBC,ioos:station:NOAA.NDBC:PLSF1:1,2019-10-07T23:45:00Z,24.6930,-82.7730,27.6,11111222 
NDBC,ioos:station:NOAA.NDBC:PLSF1:1,2019-10-08T00:45:00Z,24.6930,-82.7730,27.6,11111222 
NDBC,ioos:station:NOAA.NDBC:PLSF1:1,2019-10-08T01:45:00Z,24.6930,-82.7730,27.5,11111222 
NDBC,ioos:station:NOAA.NDBC:PLSF1:1,2019-10-08T02:45:00Z,24.6930,-82.7730,27.6,11111222 
NDBC,ioos:station:NOAA.NDBC:PLSF1:1,2019-10-08T03:45:00Z,24.6930,-82.7730,27.5,11111222 
NDBC,ioos:station:NOAA.NDBC:PLSF1:1,2019-10-08T04:45:00Z,24.6930,-82.7730,27.5,11111222 
NDBC,ioos:station:NOAA.NDBC:PLSF1:1,2019-10-08T05:45:00Z,24.6930,-82.7730,27.5,11111222 
NDBC,ioos:station:NOAA.NDBC:PLSF1:1,2019-10-08T07:45:00Z,24.6930,-82.7730,27.7,11111222 
NDBC,ioos:station:NOAA.NDBC:PLSF1:1,2019-10-08T08:45:00Z,24.6930,-82.7730,27.6,11111222 
NDBC,ioos:station:NOAA.NDBC:PLSF1:1,2019-10-08T10:45:00Z,24.6930,-82.7730,27.6,11111222 
NDBC,ioos:station:NOAA.NDBC:PLSF1:1,2019-10-08T12:45:00Z,24.6930,-82.7730,30.0,11111222 
NDBC,ioos:station:NOAA.NDBC:PLSF1:1,2019-10-08T13:45:00Z,24.6930,-82.7730,28.8,11111222 
NDBC,ioos:station:NOAA.NDBC:PLSF1:1,2019-10-08T15:45:00Z,24.6930,-82.7730,28.0,11111222 
NDBC,ioos:station:NOAA.NDBC:PLSF1:1,2019-10-08T16:45:00Z,24.6930,-82.7730,26.3,11111222 
NDBC,ioos:station:NOAA.NDBC:PLSF1:1,2019-10-08T17:45:00Z,24.6930,-82.7730,26.6,11111222 
NDBC,ioos:station:NOAA.NDBC:PLSF1:1,2019-10-08T18:45:00Z,24.6930,-82.7730,27.7,11111222 
NDBC,ioos:station:NOAA.NDBC:PLSF1:1,2019-10-08T19:45:00Z,24.6930,-82.7730,27.8,11111222 
NDBC,ioos:station:NOAA.NDBC:PLSF1:1,2019-10-08T20:45:00Z,24.6930,-82.7730,27.0,11111222 
NDBC,ioos:station:NOAA.NDBC:PLSF1:1,2019-10-08T21:45:00Z,24.6930,-82.7730,27.1,11111222 
NDBC,ioos:station:NOAA.NDBC:PLSF1:1,2019-10-08T22:45:00Z,24.6930,-82.7730,27.1,11111222 
NDBC,ioos:station:NOAA.NDBC:PLSF1:1,2019-10-09T00:45:00Z,24.6930,-82.7730,27.2,11111222 
NDBC,ioos:station:NOAA.NDBC:PLSF1:1,2019-10-09T01:45:00Z,24.6930,-82.7730,27.7,11111222 
NDBC,ioos:station:NOAA.NDBC:PLSF1:1,2019-10-09T02:45:00Z,24.6930,-82.7730,27.9,11111222 
NDBC,ioos:station:NOAA.NDBC:PLSF1:1,2019-10-09T03:45:00Z,24.6930,-82.7730,27.4,11111222 
NDBC,ioos:station:NOAA.NDBC:PLSF1:1,2019-10-09T05:45:00Z,24.6930,-82.7730,27.1,11111222 
NDBC,ioos:station:NOAA.NDBC:PLSF1:1,2019-10-09T06:45:00Z,24.6930,-82.7730,27.6,11111222 
NDBC,ioos:station:NOAA.NDBC:PLSF1:1,2019-10-09T07:45:00Z,24.6930,-82.7730,27.8,11111222 
NDBC,ioos:station:NOAA.NDBC:PLSF1:1,2019-10-09T09:45:00Z,24.6930,-82.7730,27.6,11111222 
NDBC,ioos:station:NOAA.NDBC:PLSF1:1,2019-10-09T10:45:00Z,24.6930,-82.7730,27.7,11111222 
NDBC,ioos:station:NOAA.NDBC:PLSF1:1,2019-10-09T11:45:00Z,24.6930,-82.7730,27.9,11111222 
NDBC,ioos:station:NOAA.NDBC:PLSF1:1,2019-10-09T13:45:00Z,24.6930,-82.7730,28.0,11111222 
NDBC,ioos:station:NOAA.NDBC:PLSF1:1,2019-10-09T14:45:00Z,24.6930,-82.7730,28.2,11111222 
NDBC,ioos:station:NOAA.NDBC:PLSF1:1,2019-10-09T15:45:00Z,24.6930,-82.7730,28.9,11111222 
NDBC,ioos:station:NOAA.NDBC:PLSF1:1,2019-10-09T16:45:00Z,24.6930,-82.7730,28.8,11111222 
NDBC,ioos:station:NOAA.NDBC:PLSF1:1,2019-10-09T17:45:00Z,24.6930,-82.7730,28.6,11111222 
NDBC,ioos:station:NOAA.NDBC:PLSF1:1,2019-10-09T19:45:00Z,24.6930,-82.7730,28.6,11111222 
NDBC,ioos:station:NOAA.NDBC:PLSF1:1,2019-10-09T20:45:00Z,24.6930,-82.7730,28.6,11111222 
NDBC,ioos:station:NOAA.NDBC:PLSF1:1,2019-10-09T22:45:00Z,24.6930,-82.7730,28.0,11111222 
NDBC,ioos:station:NOAA.NDBC:PLSF1:1,2019-10-10T01:45:00Z,24.6930,-82.7730,28.2,11111222 
NDBC,ioos:station:NOAA.NDBC:PLSF1:1,2019-10-10T02:45:00Z,24.6930,-82.7730,28.3,11111222 
NDBC,ioos:station:NOAA.NDBC:PLSF1:1,2019-10-10T03:45:00Z,24.6930,-82.7730,28.4,11111222 
NDBC,ioos:station:NOAA.NDBC:PLSF1:1,2019-10-10T04:45:00Z,24.6930,-82.7730,27.8,11111222 
NDBC,ioos:station:NOAA.NDBC:PLSF1:1,2019-10-10T05:45:00Z,24.6930,-82.7730,26.5,11111222 
NDBC,ioos:station:NOAA.NDBC:PLSF1:1,2019-10-10T07:45:00Z,24.6930,-82.7730,27.0,11111222 
NDBC,ioos:station:NOAA.NDBC:PLSF1:1,2019-10-10T08:45:00Z,24.6930,-82.7730,27.3,11111222 
NDBC,ioos:station:NOAA.NDBC:PLSF1:1,2019-10-10T09:45:00Z,24.6930,-82.7730,27.4,11111222 
NDBC,ioos:station:NOAA.NDBC:PLSF1:1,2019-10-10T10:45:00Z,24.6930,-82.7730,27.7,11111222 
NDBC,ioos:station:NOAA.NDBC:PLSF1:1,2019-10-10T11:45:00Z,24.6930,-82.7730,27.7,11111222 
NDBC,ioos:station:NOAA.NDBC:PLSF1:1,2019-10-10T12:45:00Z,24.6930,-82.7730,28.3,11111222 
NDBC,ioos:station:NOAA.NDBC:PLSF1:1,2019-10-10T13:45:00Z,24.6930,-82.7730,28.0,11111222 
NDBC,ioos:station:NOAA.NDBC:PLSF1:1,2019-10-10T14:45:00Z,24.6930,-82.7730,28.0,11111222 
NDBC,ioos:station:NOAA.NDBC:PLSF1:1,2019-10-10T15:45:00Z,24.6930,-82.7730,27.9,11111222 
NDBC,ioos:station:NOAA.NDBC:PLSF1:1,2019-10-10T16:45:00Z,24.6930,-82.7730,27.8,11111222 
NDBC,ioos:station:NOAA.NDBC:PLSF1:1,2019-10-10T18:45:00Z,24.6930,-82.7730,27.6,11111222 
NDBC,ioos:station:NOAA.NDBC:PLSF1:1,2019-10-10T20:45:00Z,24.6930,-82.7730,27.7,11111222 
NDBC,ioos:station:NOAA.NDBC:PLSF1:1,2019-10-10T21:45:00Z,24.6930,-82.7730,27.9,11111222 
NDBC,ioos:station:NOAA.NDBC:PLSF1:1,2019-10-10T22:45:00Z,24.6930,-82.7730,27.5,11111222 
NDBC,ioos:station:NOAA.NDBC:PLSF1:1,2019-10-10T23:45:00Z,24.6930,-82.7730,27.3,11111222 
NDBC,ioos:station:NOAA.NDBC:PLSF1:1,2019-10-11T00:45:00Z,24.6930,-82.7730,27.5,11111222 
NDBC,ioos:station:NOAA.NDBC:PLSF1:1,2019-10-11T01:45:00Z,24.6930,-82.7730,27.6,11111222 
NDBC,ioos:station:NOAA.NDBC:PLSF1:1,2019-10-11T02:45:00Z,24.6930,-82.7730,27.7,11111222 
NDBC,ioos:station:NOAA.NDBC:PLSF1:1,2019-10-11T03:45:00Z,24.6930,-82.7730,27.7,11111222 
NDBC,ioos:station:NOAA.NDBC:PLSF1:1,2019-10-11T04:45:00Z,24.6930,-82.7730,27.7,11111222 
NDBC,ioos:station:NOAA.NDBC:PLSF1:1,2019-10-11T05:45:00Z,24.6930,-82.7730,27.5,11111222 
NDBC,ioos:station:NOAA.NDBC:PLSF1:1,2019-10-11T06:45:00Z,24.6930,-82.7730,27.6,11111222 
NDBC,ioos:station:NOAA.NDBC:PLSF1:1,2019-10-11T08:45:00Z,24.6930,-82.7730,27.6,11111222 
NDBC,ioos:station:NOAA.NDBC:PLSF1:1,2019-10-11T09:45:00Z,24.6930,-82.7730,27.5,11111222 
NDBC,ioos:station:NOAA.NDBC:PLSF1:1,2019-10-11T10:45:00Z,24.6930,-82.7730,27.5,11111222 
NDBC,ioos:station:NOAA.NDBC:PLSF1:1,2019-10-11T11:45:00Z,24.6930,-82.7730,27.6,11111222 
NDBC,ioos:station:NOAA.NDBC:PLSF1:1,2019-10-11T13:45:00Z,24.6930,-82.7730,27.8,11111222 
NDBC,ioos:station:NOAA.NDBC:PLSF1:1,2019-10-11T14:45:00Z,24.6930,-82.7730,27.6,11111222 
NDBC,ioos:station:NOAA.NDBC:PLSF1:1,2019-10-11T15:45:00Z,24.6930,-82.7730,27.9,11111222 
NDBC,ioos:station:NOAA.NDBC:PLSF1:1,2019-10-11T16:45:00Z,24.6930,-82.7730,27.9,11111222 
NDBC,ioos:station:NOAA.NDBC:PLSF1:1,2019-10-11T17:45:00Z,24.6930,-82.7730,27.8,11111222 
NDBC,ioos:station:NOAA.NDBC:PLSF1:1,2019-10-11T18:45:00Z,24.6930,-82.7730,27.8,11111222 
NDBC,ioos:station:NOAA.NDBC:PLSF1:1,2019-10-11T19:45:00Z,24.6930,-82.7730,27.9,11111222 
NDBC,ioos:station:NOAA.NDBC:PLSF1:1,2019-10-11T20:45:00Z,24.6930,-82.7730,28.0,11111222 
NDBC,ioos:station:NOAA.NDBC:PLSF1:1,2019-10-11T21:45:00Z,24.6930,-82.7730,28.1,11111222 
NDBC,ioos:station:NOAA.NDBC:PLSF1:1,2019-10-11T22:45:00Z,24.6930,-82.7730,28.1,11111222 
NDBC,ioos:station:NOAA.NDBC:PLSF1:1,2019-10-11T23:45:00Z,24.6930,-82.7730,28.2,11111222 
NDBC,ioos:station:NOAA.NDBC:PLSF1:1,2019-10-12T00:45:00Z,24.6930,-82.7730,28.3,11111222 
NDBC,ioos:station:NOAA.NDBC:PLSF1:1,2019-10-12T01:45:00Z,24.6930,-82.7730,28.2,11111222 
NDBC,ioos:station:NOAA.NDBC:PLSF1:1,2019-10-12T02:45:00Z,24.6930,-82.7730,27.9,11111222 
NDBC,ioos:station:NOAA.NDBC:PLSF1:1,2019-10-12T03:45:00Z,24.6930,-82.7730,27.5,11111222 
NDBC,ioos:station:NOAA.NDBC:PLSF1:1,2019-10-12T04:45:00Z,24.6930,-82.7730,27.2,11111222 
NDBC,ioos:station:NOAA.NDBC:PLSF1:1,2019-10-12T06:45:00Z,24.6930,-82.7730,27.0,11111222 
NDBC,ioos:station:NOAA.NDBC:PLSF1:1,2019-10-12T07:45:00Z,24.6930,-82.7730,27.0,11111222 
NDBC,ioos:station:NOAA.NDBC:PLSF1:1,2019-10-12T08:45:00Z,24.6930,-82.7730,27.0,11111222 
NDBC,ioos:station:NOAA.NDBC:PLSF1:1,2019-10-12T09:45:00Z,24.6930,-82.7730,27.0,11111222 
NDBC,ioos:station:NOAA.NDBC:PLSF1:1,2019-10-12T10:45:00Z,24.6930,-82.7730,27.1,11111222 
NDBC,ioos:station:NOAA.NDBC:PLSF1:1,2019-10-12T12:45:00Z,24.6930,-82.7730,27.4,11111222 
NDBC,ioos:station:NOAA.NDBC:PLSF1:1,2019-10-12T13:45:00Z,24.6930,-82.7730,27.6,11111222 
NDBC,ioos:station:NOAA.NDBC:PLSF1:1,2019-10-12T14:45:00Z,24.6930,-82.7730,27.5,11111222 
NDBC,ioos:station:NOAA.NDBC:PLSF1:1,2019-10-12T15:45:00Z,24.6930,-82.7730,27.6,11111222 
NDBC,ioos:station:NOAA.NDBC:PLSF1:1,2019-10-12T16:45:00Z,24.6930,-82.7730,27.7,11111222 
NDBC,ioos:station:NOAA.NDBC:PLSF1:1,2019-10-12T17:45:00Z,24.6930,-82.7730,27.8,11111222 
NDBC,ioos:station:NOAA.NDBC:PLSF1:1,2019-10-12T18:45:00Z,24.6930,-82.7730,27.8,11111222 
NDBC,ioos:station:NOAA.NDBC:PLSF1:1,2019-10-12T19:45:00Z,24.6930,-82.7730,27.8,11111222 
NDBC,ioos:station:NOAA.NDBC:PLSF1:1,2019-10-12T20:45:00Z,24.6930,-82.7730,28.1,11111222 
NDBC,ioos:station:NOAA.NDBC:PLSF1:1,2019-10-12T21:45:00Z,24.6930,-82.7730,27.6,11111222 
NDBC,ioos:station:NOAA.NDBC:PLSF1:1,2019-10-12T22:45:00Z,24.6930,-82.7730,26.8,11111222 
NDBC,ioos:station:NOAA.NDBC:PLSF1:1,2019-10-12T23:45:00Z,24.6930,-82.7730,26.3,11111222 
NDBC,ioos:station:NOAA.NDBC:PLSF1:1,2019-10-13T00:45:00Z,24.6930,-82.7730,27.7,11111222 
NDBC,ioos:station:NOAA.NDBC:PLSF1:1,2019-10-13T01:45:00Z,24.6930,-82.7730,27.6,11111222 
NDBC,ioos:station:NOAA.NDBC:PLSF1:1,2019-10-13T02:45:00Z,24.6930,-82.7730,27.2,11111222 
NDBC,ioos:station:NOAA.NDBC:PLSF1:1,2019-10-13T03:45:00Z,24.6930,-82.7730,27.5,11111222 
NDBC,ioos:station:NOAA.NDBC:PLSF1:1,2019-10-13T04:45:00Z,24.6930,-82.7730,27.7,11111222 
NDBC,ioos:station:NOAA.NDBC:PLSF1:1,2019-10-13T05:45:00Z,24.6930,-82.7730,27.8,11111222 
NDBC,ioos:station:NOAA.NDBC:PLSF1:1,2019-10-13T06:45:00Z,24.6930,-82.7730,27.3,11111222 
NDBC,ioos:station:NOAA.NDBC:PLSF1:1,2019-10-13T07:45:00Z,24.6930,-82.7730,27.3,11111222 
NDBC,ioos:station:NOAA.NDBC:PLSF1:1,2019-10-13T08:45:00Z,24.6930,-82.7730,27.3,11111222 
NDBC,ioos:station:NOAA.NDBC:PLSF1:1,2019-10-13T09:45:00Z,24.6930,-82.7730,27.3,11111222 
NDBC,ioos:station:NOAA.NDBC:PLSF1:1,2019-10-13T10:45:00Z,24.6930,-82.7730,27.3,11111222 
NDBC,ioos:station:NOAA.NDBC:PLSF1:1,2019-10-13T11:45:00Z,24.6930,-82.7730,27.5,11111222 
NDBC,ioos:station:NOAA.NDBC:PLSF1:1,2019-10-13T12:45:00Z,24.6930,-82.7730,28.0,11111222 
NDBC,ioos:station:NOAA.NDBC:PLSF1:1,2019-10-13T13:45:00Z,24.6930,-82.7730,28.2,11111222 
NDBC,ioos:station:NOAA.NDBC:PLSF1:1,2019-10-13T14:45:00Z,24.6930,-82.7730,28.1,11111222 
NDBC,ioos:station:NOAA.NDBC:PLSF1:1,2019-10-13T15:45:00Z,24.6930,-82.7730,28.1,11111222 